Location: F?ge?el
(45.8833°N, 22.5833°E)
Time: 11:34:52
(UTC+00:00)

MOS 1 Rocket - Pass Details

Date: 17 November 2025
Orbit: 610 x 813 km, 97.4° (Epoch: 11 December)

Event Time Altitude Azimuth Distance (km) Brightness Sun altitude
Rises 16:51:53 0° 181° (S) 2,866 6.6 -20.0°
Reaches altitude 10° 16:54:06 10° 187° (S) 1,977 5.8 -20.4°
Maximum altitude 16:58:14 47° 262° (W) 838 4.1 -21.1°
Drops below altitude 10° 17:02:34 10° 337° (NNW) 2,069 5.9 -21.8°
Sets 17:04:55 0° 343° (NNW) 3,016 6.7 -22.2°
